Weather in Lech

Austria     47°12′41″N   10°08′38″E
temp.,
°C
wind,
m/s
gust,
m/s
humid.,
%
clouds,
%
prec.,
mm/h
press.,
hPa
HPBL,
m
29 november, mon
mon2901:00−9wnw1196100 0.8 100271
04:00−9nnw2297100 1.8 100299
07:00−9nnw2397100 3.6 1004158
10:00−8nnw3396100 2.4 1007368
13:00−8nw3393100 5.1 1009488
16:00−12wnw229885 1.3 101511
19:00−11w2296100 2.4 101779
22:00−10w2296100 1.9 101986
30 november, tue
tue3001:00−11sw3396100 2.4 102259
04:00−11sw3395100 1.1 1023104
07:00−11sw4490100 1.3 102446
10:00−8sw4581100 0.0 1022152
13:00−7sw4594100 0.4 1020225
16:00−6sw4596100 3.2 1020149
19:00−5sw4596100 7.9 1019123
22:00−4sw3497100 4.3 1019103
1 december, wed
wed101:00−3sw349694 5.7 101874
04:00−6ssw339010 0.1 101618
07:00−8ssw33877 0.1 101514
10:00−3sw339045 0.0 101084
13:00−1sw229179 0.0 1004159
16:00−3sw329090 0.0 100315
19:00−3s4490100 0.1 100363
22:00−4ssw3496100 1.3 100494
2 december, thu
thu201:00−5ssw3397100 3.6 100387
04:00−5sw2297100 1.6 100262
07:00−5w2298100 3.2 100243
10:00−4nw2296100 1.7 1003248
13:00−4wnw2289100 2.3 1002364
16:00−6nw2297100 2.1 1004260
19:00−7wnw2297100 4.1 100667
22:00−8nw2297100 2.9 101060
3 december, fri
fri301:00−12w1198100 3.5 101311
04:00−11wsw119797 0.8 101511
07:00−14ssw329874 0.9 101814
10:00−10sw23915 0.0 101665
13:00−7sw237412 0.0 1012262
16:00−11s3377100 0.0 101217
19:00−11s4366100 0.3 101126
22:00−9sw4592100 2.1 1012115